Flag for Germany Weather past 2 weeks in Krefeld, North Rhine-Westphalia, Germany

Now
63 °F

Partly sunny.


Feels Like: 63 °F
Forecast: 54 / 62 °F
Wind: 5 mph from Southeast

Location: Monchengladbach Airport

Current Time: Sep 20, 2014 at 10:13:35 AM

Latest Report: Sep 20, 2014 at 9:50 AM


Visibility: 4 mi

Pressure: 29.95 "Hg

Humidity: 100%

Dew point: 63 °F

Location of KrefeldLocation

Historic Weather in Krefeld — Graph

°F

Krefeld temperature yesterday

Maximum temperature yesterday: 77 °F (at 4:20 PM)
Minimum temperature yesterday: 59 °F (at 7:50 AM)
Average temperature yesterday: 71 °F

Past Weeks' High & Low Weather Summary

 TemperatureHumidityPressure
High77 °F (Sep 5, 4:50 PM)100% (Sep 5, 8:20 AM)30.24 "Hg (Sep 5, 8:20 AM)
Low48 °F (Sep 12, 7:50 AM)47% (Sep 17, 5:50 PM)29.80 "Hg (Sep 18, 7:50 PM)
Average66 °F75%30.02 "Hg
* Reported Sep 5 8:20 AM — Sep 20 8:50 AM, Krefeld, Weather by CustomWeather, © 2014

Note: Actual official high and low records may vary slightly from our data, if they occured in-between our weather recording intervals... More about our weather records

Advertising

Krefeld weather history for previous 24 hours

 ConditionsComfort  
Time TempWeatherWind HumidityBarometerVisibility
8:50 AM
Sep 20
61 °FFog.3 mph100%29.92 "Hg2 mi
8:20 AM59 °FFog.2 mph100%29.92 "Hg2 mi
7:50 AM59 °FFog.3 mph100%29.92 "Hg2 mi
7:50 PM
Sep 19
68 °FClear.3 mph83%29.86 "Hg10 mi
7:20 PM72 °FPassing clouds.2 mph78%29.86 "HgN/A
6:50 PM73 °FPassing clouds.2 mph74%29.86 "HgN/A
6:20 PM75 °FPassing clouds.3 mph65%29.86 "HgN/A
5:50 PM77 °FPassing clouds.3 mph65%29.86 "HgN/A
5:20 PM77 °FPassing clouds.3 mph65%29.86 "HgN/A
4:50 PM77 °FPassing clouds.6 mph61%29.86 "HgN/A
4:20 PM77 °FPassing clouds.3 mph61%29.86 "HgN/A
3:50 PM75 °FPassing clouds.3 mph65%29.86 "HgN/A
3:20 PM75 °FPassing clouds.6 mph69%29.86 "HgN/A
2:50 PM75 °FPassing clouds.3 mph65%29.86 "HgN/A
2:20 PM75 °FPassing clouds.3 mph69%29.86 "HgN/A
1:50 PM73 °FPassing clouds.3 mph74%29.86 "HgN/A
1:20 PM72 °FPassing clouds.5 mph78%29.86 "HgN/A
12:50 PM72 °FClear.2 mph73%29.86 "Hg10 mi
12:20 PM72 °FClear.3 mph73%29.86 "Hg10 mi
11:50 AM70 °FSunny.3 mph78%29.86 "Hg10 mi
11:20 AM70 °FPassing clouds.2 mph83%29.86 "HgN/A
10:50 AM68 °FPassing clouds.5 mph83%29.86 "HgN/A
10:20 AM68 °FPassing clouds.5 mph83%29.86 "HgN/A
Weather by CustomWeather, © 2014

See weather overviewHow to use our weather pages